www.pogodaiklimat.ru

Погода и климат >> Архив погоды >> Россия >> Мурманская область >> Вайда-Губа


АРХИВ ПОГОДЫ в Вайда-Губе

Время (UTC), дата Ветер
(напр.,м/с)
 
Видим.   Явления Облачность Т
(С)
Тd
(С)
f
(%)
Тe
(С)
Тes
(С)
Комфортность P
(гПа)
Po
(гПа)
Тmin
(С)
Tmax
(С)
R
(мм)
R24
(мм)
S
(см)
09 11.06 С 7-9
{14}
50 км в посл. час ливневой снег 10/10 300 м
[Cb cap]
+3.6 +0.5 80 -2 -2 1024.2 1023.2
12 11.06 С 7-9
{12}
10 км слаб. ливневой дождь 9/9 300 м
[Cb cap]
+3.7 +0.4 79 -2 -2 1026.3 1025.3
15 11.06 С 7-10
{12}
10 км слаб. ливневой дождь 10/9 300 м
[Cb cap Ci fib]
+3.8 +0.9 81 -2 -2 1027.0 1026.0 1
18 11.06 СЗ 6-9
{10}
50 км {ливн. осадки} 9/8 300 м
[Cb cap Ac trans]
+4.1 -0.7 71 -1 -1 1027.5 1026.5 +4.9 0.6
21 11.06 СЗ 4 50 км 9/9 300 м
[Sc]
+3.8 +0.1 77 -1 -1 1027.5 1026.5
00 12.06 З 4 50 км {ливн. осадки} 9/9 300 м
[Cb cap]
+3.8 +0.8 81 -1 -1 1027.7 1026.8
03 12.06 СЗ 5-7
{10}
50 км 10/10 300 м
[Sc]
+4.1 +0.1 75 -1 -1 1027.8 1026.8 +3.2 0.0
06 12.06 З 4 50 км 10/10 300 м
[Sc]
+5.3 +1.1 74 +1 +1 1028.5 1027.5 +3.2 0.0
09 12.06 СЗ 5-7
{10}
50 км 9/8 300 м
[Cb cap Ac trans]
+6.2 +2.1 75 +2 +3 1029.4 1028.5
12 12.06 СЗ 5 50 км 9/8 300 м
[Sc Ac trans]
+6.4 +1.5 71 +2 +3 1030.1 1029.1
15 12.06 СЗ 4 50 км 9/3 300 м
[Sc Ac trans]
+6.3 +1.3 70 +3 +4 1030.2 1029.2
18 12.06 С 4 50 км 9/9 300 м
[Sc]
+5.6 +1.7 76 +2 +2 1030.0 1029.1 +7.2
21 12.06 З 2 50 км 10/3 300 м
[Sc Ci fib]
+3.8 +1.5 85 +1 +1 1030.0 1029.0
00 13.06 СЗ 2 50 км 1/1 300 м
[Sc]
+4.0 +1.2 82 +1 +1 1029.8 1028.8
03 13.06 З 2 50 км 1/0
[Ci fib]
+5.6 +0.2 68 +3 +5 1029.1 1028.1 +3.5
06 13.06 З 2 50 км 3/1 600 м
[Sc Ac trans]
+7.3 +0.5 62 +6 +11 1028.5 1027.5 +3.5
09 13.06 СВ 3 50 км 8/1 600 м
[Sc Ac trans]
+6.6 +2.3 74 +4 +8 1027.6 1026.7
12 13.06 СВ 5 50 км 8/3 600 м
[Sc Ac trans Ci sp]
+7.5 +1.8 67 +4 +6 1026.4 1025.4
15 13.06 В 5 50 км 9/6 600 м
[Sc Ac trans Ci fib]
+5.9 +2.0 76 +2 +2 1025.4 1024.5
18 13.06 СВ 4 50 км 9/3 600 м
[Sc Ac trans Ci sp]
+5.3 +3.0 85 +1 +2 1024.3 1023.3 +8.0
21 13.06 С 3 50 км 9/3 300 м
[Sc Ac As Ci sp]
+4.0 +1.9 86 0 0 1023.6 1022.6
00 14.06 СЗ 3 50 км 10/10 300 м
[Sc]
+4.6 +1.8 82 +1 +1 1022.8 1021.8
03 14.06 З 3 50 км 9/9 300 м
[Sc Ac trans]
+5.3 +1.2 75 +2 +2 1021.3 1020.3 +3.7
06 14.06 СЗ 3 50 км 10/10 300 м
[Sc]
+5.4 +1.6 76 +2 +2 1020.1 1019.1 +3.7
09 14.06 З 5 50 км 10/4 300 м
[Sc Ac trans Cc]
+6.8 +1.1 67 +3 +5 1019.1 1018.1
12 14.06 СЗ 8-11
{11}
50 км 10/10 300 м
[Sc]
+6.1 +2.5 78 +1 +1 1019.2 1018.3
15 14.06 СЗ 7-9
{11}
50 км 10/10 300 м
[St]
+5.2 +3.5 89 -0 -0 1018.9 1017.9
18 14.06 СЗ 5-8
{10}
50 км 9/9 300 м
[Sc]
+5.6 +3.3 85 +1 +1 1018.3 1017.3 +7.0
21 14.06 СЗ 5-7
{11}
50 км 10/10 300 м
[Cb cap]
+5.2 +2.9 85 +1 +1 1018.4 1017.4
00 15.06 СЗ 7-9
{11}
50 км 10/10 300 м
[Cb cap]
+4.8 +2.8 87 -1 -1 1017.8 1016.9
03 15.06 СЗ 6-8
{10}
50 км 10/10 300 м
[Cb cap]
+5.0 +2.9 86 -0 -0 1017.9 1016.9 +4.7
06 15.06 З 4 50 км в посл. час ливневой дождь 10/10 300 м
[Cb cap]
+5.2 +2.9 85 +1 +1 1017.5 1016.6 +4.7 0.0
09 15.06 З 5 50 км 10/10 300 м
[Sc]
+6.8 +2.5 74 +3 +3 1016.3 1015.4
12 15.06 ЮЗ 5 50 км 8/1 300 м
[Sc Ac cast Ci sp]
+9.7 +2.8 62 +7 +9 1014.3 1013.4
15 15.06 З 3 50 км 9/6 300 м
[Sc Ac trans Ci fib]
+9.5 +3.5 66 +7 +8 1011.8 1010.9 0.0
18 15.06 З 1 50 км 8/3 300 м
[Sc Ac trans]
+9.1 +3.7 69 +9 +9 1009.7 1008.8 +10.7
21 15.06 СЗ 7-11
{11}
50 км 8/3 300 м
[Sc Ac cast]
+6.0 +4.0 87 +1 +1 1009.3 1008.4
00 16.06 СЗ 9-12
{14}
50 км 9/8 300 м
[Sc Ac trans]
+6.0 +3.8 86 0 0 1009.6 1008.7
03 16.06 СЗ 8-11
{15}
50 км 8/8 300 м
[Sc]
+5.5 +3.3 86 -0 -0 1009.9 1009.0 +5.5
06 16.06 СЗ 8-11
{12}
50 км 8/6 300 м
[Sc Ac trans]
+7.5 +3.7 77 +3 +3 1010.3 1009.4 +5.5
09 16.06 З 6-11
{11}
50 км 9/9 300 м
[Sc]
+7.5 +3.4 75 +3 +4 1011.0 1010.0
12 16.06 СЗ 10-14
{14}
50 км 8/8 300 м
[Cb cap]
+7.8 +3.6 75 +3 +3 1010.7 1009.7
15 16.06 СЗ 5-8
{14}
50 км 8/8 300 м
[Cb cap]
+7.2 +3.2 76 +3 +4 1011.4 1010.4
18 16.06 СЗ 6-8
{13}
50 км 9/9 300 м
[Cb cap]
+6.1 +2.9 80 +1 +1 1011.1 1010.2 +8.6
21 16.06 СЗ 6-10
{12}
50 км 9/9 300 м
[Sc]
+5.5 +2.3 80 +1 +1 1010.7 1009.7
00 17.06 З 5-8
{10}
50 км 10/10 300 м
[Sc]
+5.4 +1.7 77 +1 +1 1010.4 1009.5
03 17.06 З 5-8
{11}
50 км 10/10 300 м
[Sc]
+5.9 +1.6 74 +2 +2 1009.6 1008.7 +5.2
06 17.06 СЗ 5-7
{10}
50 км в посл. час ливневой дождь 9/9 300 м
[Cb cap]
+6.0 +3.0 81 +2 +2 1009.6 1008.7 +5.0 0.1
09 17.06 СЗ 6-8
{10}
50 км {ливн. осадки} 8/8 300 м
[Sc Ac trans]
+7.1 +3.0 75 +3 +4 1009.5 1008.6
12 17.06 СЗ 6 50 км {ливн. осадки} 8/8 300 м
[Sc]
+7.3 +2.4 71 +3 +4 1009.7 1008.8
15 17.06 СЗ 7-10
{12}
50 км 10/4 300 м
[Sc Ac trans Ci fib]
+6.4 +2.7 77 +2 +2 1009.9 1009.0 0.1
18 17.06 СЗ 8-9
{13}
50 км 9/8 300 м
[Sc Ac trans]
+5.3 +1.9 79 -0 -0 1010.2 1009.2 +7.6
21 17.06 СЗ 4-6
{11}
50 км 9/9 300 м
[Cb cap]
+4.4 +2.3 86 0 0 1010.5 1009.6
00 18.06 СЗ 4 50 км {ливн. осадки} 9/9 300 м
[Cb cap]
+4.1 +2.4 89 -0 -0 1010.5 1009.6
03 18.06 СЗ 5 50 км в посл. час ливневой дождь 8/8 300 м
[Cb cap Ac trans]
+5.2 +0.9 74 +1 +1 1010.4 1009.5 +3.9 0.1
06 18.06 СЗ 5 50 км в посл. час ливневой дождь 8/5 300 м
[Cb cap Ac trans]
+5.4 +1.3 75 +1 +2 1010.9 1010.0 +3.9 0.1

 

Местоположение метеостанции Вайда-Губа (Мурманская область, Россия): широта 69.93 долгота 31.98 высота над уровнем моря 8 м.

В архиве по умолчанию представлена погода в Вайда-Губе за последнюю неделю. Архивные данные за месяц целиком и за предыдущие месяцы, начиная с января 2011 года, Вы можете получить, выбрав интересующий диапазон дат из раскрывающегося списка и нажав кнопку "Ввод!".


*Определитесь, кто Вы:
робот инопланетянин человек

Внимание! Время в таблицах - всемирное. Для получения местного времени необходимо прибавить поправку, которая равна 3 ч.

Смотрите также архив погоды в соседних городах и на ближайших метеорологических станциях:

Погода в Порту Лиинахамари (Мурманская область, Россия) (41 км)
Погода в Цып-Наволоке (Мурманская область, Россия) (48 км)
Погода в Вардё аэропорту (Норвегия) (59 км)
Погода в Вардё (Норвегия) (59 км)
Погода в Ура-Губе (Мурманская область, Россия) (79 км)
Погода в Киркенес аэропорту (Норвегия) (83 км)
Погода в Вадсо аэропорту (Норвегия) (83 км)
Погода в Перевале (Мурманская область, Россия) (84 км)
Погода в Никеле (Мурманская область, Россия) (90 км)
Погода в Пасвике (Норвегия) (92 км)

Пояснения к столбцам:

Ветер - указаны скорость ветра в м/с - средняя за 10 мин, порывы в срок и между сроками (в фигурных скобках) и направление, откуда дует ветер: С - северный, СВ - северо-восточный, В - восточный, ЮВ - юго-восточный, Ю - южный, ЮЗ - юго-западный, З - западный, СЗ - северо-западный.
Видимость - горизонтальная дальность видимости в метрах или километрах. При видимости от 1 до 10 км при отсутствии осадков обычно наблюдается дымка, при ухудшении видимости до 1 км и менее - туман. В сухую погоду видимость может ухудшаться дымом, пылью или мглою.
Явления - указаны атмосферные явления, наблюдавшиеся в срок или в последний час перед сроком; фигурными скобками обозначены явления, наблюдавшиеся между сроками (за 1-3 часа до срока); квадратными скобками обозначены град или гололедные отложения с указанием их диаметра в мм.
Облачность - указаны через наклонную черту общая и нижняя облачность в баллах и высота нижней границы облаков в метрах; квадратными скобками обозначены формы облаков: Ci - перистые, Cs - перисто-слоистые, Cc - перисто-кучевые, Ac - высококучевые, As - высокослоистые, Sc - слоисто-кучевые, Ns - слоисто-дождевые, Cu - кучевые, Cb - кучево-дождевые. Подробнее классификацию облаков см. в Атласе облаков (PDF).
T - Температура воздуха - температура, измеренная на высоте 2 м над землей.
Td - Температура точки росы - температура, при понижении до которой содержащийся в воздухе водяной пар достигнет насыщения.
f - Относительная влажность воздуха - влажноcть воздуха, измеренная на высоте 2 м над землей.
Te - Эффективная температура - температура, которую ощущает одетый по сезону человек в тени. Характеристика душности погоды. При расчете учитывается влияние влажности воздуха и скорости ветра на теплоощущения человека.
Tes - Эффективная температура на солнце - температура, которую ощущает человек, с поправкой на солнечный нагрев. Характеристика знойности погоды. Зависит от высоты солнца над горизонтом, облачности и скорости ветра. Ночью, в пасмурную погоду, а также при ветре 12 м/с и более поправка равна нулю.
P - Атмосферное давление - приведенное к уровню моря атмосферное давление.
Po - Атмосферное давление - измеренное на уровне метеостанции атмосферное давление.
Tmin - Минимальная температура - минимум температуры воздуха на высоте 2 м над землей.
Tmax - Максимальная температура - максимум температуры воздуха на высоте 2 м над землей.
R - Количество осадков - Количество выпавших осадков за период времени, мм. При наведении курсора мыши на число - период времени, за который выпало указанное количество осадков.
R24 - Количество осадков - Количество выпавших осадков за 24 часа, мм.
S - Снежный покров - Высота снежного покрова, см. При наведении курсора мыши на число - состояние снежного покрова и степень покрытия местности в баллах.